User: anonymous   Login
Location: Unspecified
(0.0000°N, 0.0000°E)
Time: 00:06:55
(UTC+00:00)
Language:

TBA - TO BE ASSIGNED - Orbit

View from above orbital plane
View from above orbital plane
View from above satellite
View from above satellite

Ground track
Ground track

The orbit is defined by the following mean orbital elements,

1 68245U          26145.42508988 +.00000000 +00000-0 +97591-3 0 00004
2 68245  53.1566 296.6721 0001007  92.7690 267.3434 15.49352378    03
Epoch (UTC): 25 May 2026 10:12:07
Eccentricity: 0.0001007
inclination: 53.1566°
perigee height: 418 km
apogee height: 419 km
right ascension of ascending node: 296.6721°
argument of perigee: 92.7690°
revolutions per day: 15.49352378
mean anomaly at epoch: 267.3434°

The dashed part of the orbit path shows where the satellite is in the earth's shadow,  

DLR